Weather in Ust-Pyzha

Russia / Altai Republic     51°51′32″N   87°05′32″E
temp.,
°C
wind,
m/s
gust,
m/s
humid.,
%
clouds,
%
prec.,
mm/h
press.,
hPa
HPBL,
m
23 april, fri
fri2301:00−4wsw1197100 0.7 103790
04:00−4w1197100 0.5 1036103
07:00−4wnw1196100 1.4 1037205
10:00−2nw1288100 1.1 1037645
13:000nw2279100 1.6 1036948
16:000nw3492100 1.2 1035675
19:00−1wnw2396100 2.6 1036366
22:00−2w1199100 1.4 103673
24 april, sat
sat2401:00−2w1299100 2.6 1035100
04:00−3w1198100 1.5 1034108
07:00−3wnw1297100 3.3 1034138
10:00−1nw1492100 1.2 1033599
13:00+1nnw2486100 2.3 1032911
16:00+1nw2478100 0.7 10321134
19:00+1nnw0186100 1.1 103276
22:00−3s2296100 0.1 103541
25 april, sun
sun2501:00−4sse2396100 0.5 103454
04:00−4s2293100 0.2 103551
07:00−3s239591 1.1 1035107
10:00+1nnw018688 0.4 1034583
13:00+3nnw227688 1.3 10331111
16:00+4nnw126986 0.3 10321284
19:00+3nnw118581 0.4 103231
22:00−4s229510 0.0 103430
26 april, mon
mon2601:00−5sse23935 0.0 103343
04:00−6sse23925 0.0 103340
07:00−4sse238613 0.0 103366
10:00+4ene117076 0.0 1030465
13:00+8n0163100 0.0 10281024
16:00+9sw026238 0.0 10271259
19:00+7se11885 0.0 102710
22:000s22938 0.0 102935
27 april, tue
tue2701:00−1sse238925 0.0 102846
04:00+1sse3684100 0.0 102688
07:00+3sse3682100 0.0 1025105
10:00+6se2390100 0.2 1025110
13:00+7se1388100 1.8 1025281
16:00+10wnw1576100 0.7 1024593
19:00+8s2288100 1.3 102543
22:00+5sse2391100 0.0 102652